Details From YBUD - Bundaberg
To YBMK - Mackay
Flight Number -
Tags Generated
Created
Modified
Stats Distance 283 nm / 525 km
Max Altitude 0 ft / 0 m
Waypoints 3
Social Downloads 2
Likes 0
Share VATSIM

Download

Looking for another format? Having issues loading an existing format? Contact us
Advertisement - Login to hide

Notes

Generated

Route

YBUD BMKSF YBMK

ID Type Via Altitude Latitude Longitude Leg Dist Tot Dist Heading (true) Name
O YBUD APT - 0 ft / 0 m -24.90636˚ 152.31380˚ - 0 nm - -
BMKSF FIX - 0 ft / 0 m -21.25317˚ 149.23783˚ 277 nm 277 nm 322° / 323° -
O YBMK APT - 0 ft / 0 m -21.17569˚ 149.17421˚ 5 nm 283 nm 323° / 323° -

Altitude Profile

Advertisement - Login to hide

Weather


0- 5 10 15 20 25 30 35+ Temperature / ° C

Clouds and Precipitation
Forecast for 2017-12-17 06:00 UTC. Updated an hour ago

Ground ~20,000 ft ~40,000 ft Winds

YBUD

Details ICAO YBUD (BDB)
Name Bundaberg
Region Australia
Timezone Australia/Brisbane (UTC+10.0)
Stats Elevation 106 ft / 32 m (AMSL)
Location -24.903419° 152.320218°
Runways 2
Magnetic Variation 10.077° E

METAR

YBUD 170600Z AUTO 09014KT 9999 // SCT031 29/20 Q1013

Decode

TAF

Not found

Departure Runways

ID Width Length Bearing (true) Bearing (mag) Surface Threshold Offset Overrun Length
07 95 ft / 29 m 3,704 ft / 1,129 m 68.50° 58.42° Grass 0 ft / 0 m 0 ft / 0 m
14 98 ft / 30 m 5,042 ft / 1,537 m 147.90° 137.82° Asphalt 331 ft / 101 m 30 ft / 9 m
25 95 ft / 29 m 3,704 ft / 1,129 m 248.50° 238.42° Grass 0 ft / 0 m 0 ft / 0 m
32 98 ft / 30 m 5,042 ft / 1,537 m 327.90° 317.82° Asphalt 0 ft / 0 m 39 ft / 12 m

YBMK

Details ICAO YBMK (MKY)
Name Mackay
Region Australia
Timezone Australia/Brisbane (UTC+10.0)
Stats Elevation 18 ft / 5 m (AMSL)
Location -21.171614° 149.181130°
Runways 2
Magnetic Variation 8.382° E

METAR

YBMK 170600Z AUTO 11014KT 9999 // NCD 29/19 Q1011

Decode

TAF

Not found

Destination Runways

ID Width Length Bearing (true) Bearing (mag) Surface Threshold Offset Overrun Length
05 98 ft / 30 m 4,411 ft / 1,344 m 57.80° 49.42° Asphalt 194 ft / 59 m 0 ft / 0 m
14 148 ft / 45 m 6,516 ft / 1,986 m 147.90° 139.52° Asphalt 0 ft / 0 m 0 ft / 0 m
23 98 ft / 30 m 4,411 ft / 1,344 m 237.80° 229.42° Asphalt 0 ft / 0 m 0 ft / 0 m
32 148 ft / 45 m 6,516 ft / 1,986 m 327.90° 319.52° Asphalt 0 ft / 0 m 0 ft / 0 m

Popular Alternatives